Terminal Aerodrome Forecast
Issued by NWS Denver/Boulder, CO

Home | Current Version | Previous Version | Text Only | Print | Product List | Glossary On
Versions: 1 2 3 4 5 6 7 8 9 10 11 12 13 14 15 16 17 18 19 20 21 22 23 24 25 26 27 28 29 30 31 32 33 34 35 36 37 38 39 40 41 42 43 44 45 46 47 48 49 50
000
FTUS45 KBOU 271738
TAFDEN
TAF
KDEN 271738Z 2718/2824 25010KT P6SM SCT220
     FM272000 31009KT P6SM FEW140 SCT220
     FM272300 02007KT P6SM SCT140 BKN200
     FM280100 15010KT P6SM SCT120 BKN200
     FM280400 20012KT P6SM FEW140 BKN200
     FM281700 24010KT P6SM BKN120 BKN180
     FM282200 33008KT P6SM BKN120 BKN180=

USA.gov is the U.S. government's official web portal to all federal, state and local government web resources and services.